TIANLIAN 1-05

Last updated on Mon Sep 07 2026 00:03:01 GMT+0000 (Coordinated Universal Time)

1 49011U 21063A 26249.59511501 .00000092 00000+0 00000+0 0 9996 2 49011 1.7972 79.8740 0003358 137.7415 359.1095 1.00272788 18898
UTC large
Height (km)
Speed (km/s)
/
Latitude / Longitude
Inclination (degrees)
Orbital Period (minutes)
Azimuth
Elevation
Range (km)
Doppler Factor

Next 0 passes for location: London (51.5072 / 0.1276)

No passes found over London.
TIANLIAN 1-05